[[{"header":{"parameterUnit":"m.s-1","parameterCategory":1,"la1":30.2991,"la2":30.254,"lo1":-89.0895,"lo2":-89.0444,"dy":0.0017,"dx":0.0017,"nx":28,"ny":28,"refTime":"2026-01-02T03:00:00:Z","depth":0,"parameterNumber":2,"parameterNumberName":"U-component_of_WINDS"},"data":[0,0,0,0,0,0,0,0,0,0,0,0,0,0,0,0,0,0,0,0,0,0,0,0,0,0,0,0,0,0,0,0,0,0,0,0,0,0,0,0,0,0,0,0,0,0,0,0,0,0,0,0,0,0,0,0,0,0,1.1005,1.1005,0,1.1027,1.1028,1.1028,1.1014,1.1014,1.1013,1.1012,1.1034,1.1035,1.1037,0,0,0,0,0,0,0,0,0,0,0,0,0,1.0952,1.0953,1.1005,1.1005,1.1006,1.1027,1.1028,1.1028,1.1014,1.1013,1.1013,1.1012,1.1034,1.1035,1.1037,0,0,0,0,0,0,0,0,0,0,0,0,0,1.0975,1.0954,1.1005,1.1001,1.1001,1.1027,1.1028,1.1028,1.1014,1.1013,1.1012,1.1012,1.1033,1.1035,1.1037,1.1067,0,0,1.1042,1.1043,0,0,0,0,0,0,0,0,1.0974,1.0977,1.1002,1.1002,1.1002,1.1017,1.1017,1.1041,1.1015,1.1009,1.1012,1.1011,1.1029,1.1031,1.1038,1.1068,1.1069,1.1042,1.1044,1.1044,1.1045,0,0,0,0,0,0,0,1.0972,1.0976,1.1014,1.1002,1.1002,1.0999,1.1001,1.1022,1.1024,1.101,1.1009,1.1012,1.1029,1.1036,1.1038,1.107,1.1042,1.1044,1.1045,1.1046,1.113,1.1131,0,0,0,0,0,0,1.0971,1.0975,1.1013,1.1015,1.0985,1.1001,1.1003,1.1013,1.1024,1.1025,1.1013,1.1011,1.1033,1.1036,1.1039,1.1077,1.1044,1.1046,1.1047,1.1129,1.113,1.1131,0,0,0,0,0,0,1.097,1.0974,1.1012,1.0994,1.0999,1.1003,1.1014,1.1014,1.1021,1.1026,1.1027,1.1019,1.1033,1.1036,1.1061,1.1077,1.1047,1.1048,1.1127,1.1129,1.1131,1.1153,0,0,0,0,0,0,1.0968,1.0974,1.0985,1.0995,1.1,1.1034,1.1015,1.1015,1.1024,1.1022,1.1032,1.1033,1.1032,1.1059,1.1063,1.1079,1.105,1.1126,1.1128,1.113,1.115,1.1155,1.1159,0,0,0,0,0,1.0966,1.0989,1.0986,1.099,1.1014,1.1035,1.1038,1.1036,1.1025,1.1037,1.1041,1.1033,1.1075,1.1061,1.1066,1.1083,1.1125,1.1127,1.113,1.1149,1.1154,1.1159,0,0,0,0,0,0,1.098,1.099,1.0986,1.1013,1.1023,1.1032,1.1047,1.1042,1.1055,1.1053,1.105,1.1053,1.1079,1.1084,1.1068,1.1115,1.1098,1.1102,1.1111,1.1116,1.112,1.1118,1.1051,0,0,0,0,0,1.0987,1.1003,1.1011,1.1034,1.1039,1.1042,1.1051,1.105,1.106,1.1064,1.107,1.108,1.1096,1.1106,1.1121,1.1151,1.1154,1.1166,1.117,1.1173,1.1177,1.1196,1.1201,1.114,1.114,1.114,0,0,1.0999,1.1007,1.1017,1.1037,1.1044,1.1062,1.1046,1.1064,1.1077,1.1067,1.1091,1.1096,1.1108,1.1136,1.1149,1.1141,1.1195,1.1177,1.1179,1.1181,1.1199,1.1205,1.121,1.1142,1.1141,1.1141,0,0,1.1032,1.1039,1.106,1.1069,1.1081,1.1084,1.1089,1.11,1.1103,1.1127,1.1121,1.1137,1.1163,1.1173,1.1181,1.1221,1.1215,1.1226,1.1247,1.1266,1.1271,1.1275,1.1291,1.1296,1.1229,1.1229,1.1229,0,1.1046,1.1072,1.1071,1.1091,1.1101,1.1094,1.1116,1.1124,1.1141,1.1148,1.1139,1.1174,1.1181,1.1213,1.1223,1.123,1.1237,1.1224,1.127,1.1274,1.1278,1.1293,1.1299,1.1231,1.123,1.123,1.123,0,1.109,1.1108,1.1124,1.1141,1.1153,1.1173,1.1177,1.1189,1.1187,1.1191,1.1218,1.1227,1.1244,1.1252,1.125,1.1284,1.1279,1.127,1.1253,1.1286,1.13,1.1305,1.1232,1.1232,1.1232,1.1231,0,0,1.1129,1.1149,1.1154,1.1164,1.1178,1.1193,1.1214,1.1233,1.1244,1.1256,1.1275,1.13,1.1292,1.1302,1.1301,1.1317,1.1351,1.1307,1.1307,1.1315,1.1392,1.1399,1.1405,1.1347,1.1348,1.1349,1.1391,0,1.1163,1.1201,1.1203,1.1238,1.1256,1.1251,1.127,1.1282,1.1287,1.1303,1.1309,1.1327,1.1315,1.1321,1.1337,1.1343,1.1366,1.134,1.1365,1.1366,1.1363,1.1413,1.1419,1.1459,1.1397,1.1398,1.1398,0,1.1208,1.1223,1.126,1.1275,1.1283,1.13,1.1319,1.1334,1.1348,1.1351,1.1364,1.1361,1.1385,1.1368,1.1401,1.1384,1.1395,1.14,1.1401,1.1403,1.1384,1.1417,1.1471,1.1477,1.1407,1.1406,1.1405,0,1.1235,1.1265,1.1291,1.1299,1.1317,1.133,1.1338,1.1351,1.1363,1.1379,1.1387,1.1406,1.1416,1.1431,1.1435,1.1422,1.1469,1.1451,1.1472,1.1472,1.1482,1.1481,1.1539,1.1488,1.1488,1.1488,1.1488,0,1.1273,1.1296,1.1304,1.132,1.1347,1.135,1.1376,1.1383,1.1396,1.1414,1.1411,1.1429,1.1432,1.1451,1.1454,1.1482,1.1486,1.149,1.1491,1.1491,1.149,1.1497,1.1495,1.1489,1.1489,1.1489,1.1489,0,1.1306,1.1313,1.1342,1.1358,1.1362,1.1381,1.1395,1.1411,1.1417,1.1441,1.1447,1.1456,1.1478,1.1484,1.1509,1.1512,1.1546,1.1543,1.1541,1.1541,1.1562,1.156,1.1626,1.1636,1.1578,1.1579,1.1579,0,1.133,1.1348,1.1367,1.138,1.1389,1.1409,1.1421,1.1426,1.1439,1.1459,1.1473,1.1496,1.1513,1.1549,1.1559,1.1579,1.1578,1.16,1.1581,1.1581,1.158,1.1579,1.1581,1.1603,1.1604,1.1604,1.1605,0,1.1373,1.1376,1.1394,1.1415,1.1431,1.1447,1.1463,1.1474,1.148,1.1496,1.1519,1.1533,1.1562,1.1584,1.1606,1.1614,1.1611,1.1611,1.1617,1.1617,1.1616,1.1618,1.1551,1.1609,1.1609,1.1608,1.1608,1.1608,1.1403,1.142,1.1436,1.1458,1.1471,1.1486,1.1503,1.1513,1.1532,1.1556,1.1557,1.1583,1.16,1.1628,1.1639,1.166,1.1653,1.1662,1.1664,1.1666,1.1669,1.1613,1.1664,1.1664,1.1663,1.1663,1.1663,0,1.1446,1.1458,1.1478,1.1501,1.1518,1.1515,1.1533,1.1548,1.1571,1.1587,1.1606,1.1634,1.1657,1.1669,1.1692,1.1706,1.1706,1.1712,1.1712,1.1714,1.1673,1.1666,1.1713,1.1713,1.1713,1.1713,1.1713,1.1713,1.1471,1.15,1.1506,1.1542,1.1553,1.1579,1.159,1.1605,1.1618,1.165,1.1669,1.1677,1.1692,1.1717,1.1738,1.1742,1.1751,1.1758,1.1761,1.1722,1.1717,1.1712,1.1705,1.176,1.176,1.1801,1.1801,1.1801]},{"header":{"parameterUnit":"m.s-1","parameterCategory":1,"la1":30.2991,"la2":30.254,"lo1":-89.0895,"lo2":-89.0444,"dy":0.0017,"dx":0.0017,"nx":28,"ny":28,"refTime":"2026-01-02T03:00:00:Z","depth":0,"parameterNumber":3,"parameterNumberName":"V-component_of_WINDS"},"data":[0,0,0,0,0,0,0,0,0,0,0,0,0,0,0,0,0,0,0,0,0,0,0,0,0,0,0,0,0,0,0,0,0,0,0,0,0,0,0,0,0,0,0,0,0,0,0,0,0,0,0,0,0,0,0,0,0,0,-4.8352,-4.8353,0,-4.8461,-4.8462,-4.8463,-4.8502,-4.8502,-4.8502,-4.8501,-4.861,-4.8613,-4.8616,0,0,0,0,0,0,0,0,0,0,0,0,0,-4.8176,-4.8179,-4.8351,-4.8353,-4.8354,-4.8461,-4.8462,-4.8464,-4.8503,-4.8502,-4.8502,-4.8501,-4.8609,-4.8613,-4.8616,0,0,0,0,0,0,0,0,0,0,0,0,0,-4.8265,-4.818,-4.8351,-4.8387,-4.8391,-4.8461,-4.8462,-4.8464,-4.8503,-4.8502,-4.8501,-4.8501,-4.8607,-4.8612,-4.8617,-4.8659,0,0,-4.8632,-4.8634,0,0,0,0,0,0,0,0,-4.826,-4.8272,-4.838,-4.8384,-4.8389,-4.8468,-4.844,-4.8529,-4.8503,-4.846,-4.8501,-4.8501,-4.8563,-4.8571,-4.8593,-4.8664,-4.8668,-4.8632,-4.8635,-4.8637,-4.8639,0,0,0,0,0,0,0,-4.8254,-4.8267,-4.8395,-4.8381,-4.8387,-4.8397,-4.8409,-4.8457,-4.8513,-4.8464,-4.8467,-4.8479,-4.8565,-4.8588,-4.8596,-4.867,-4.8632,-4.8637,-4.864,-4.8641,-4.8784,-4.8785,0,0,0,0,0,0,-4.8242,-4.8262,-4.8391,-4.8398,-4.8322,-4.8401,-4.8414,-4.8443,-4.8513,-4.8523,-4.848,-4.8481,-4.858,-4.859,-4.86,-4.8655,-4.8637,-4.8642,-4.8645,-4.8783,-4.8785,-4.8785,0,0,0,0,0,0,-4.8238,-4.8253,-4.8387,-4.8331,-4.8349,-4.8404,-4.8436,-4.8445,-4.8468,-4.8525,-4.8535,-4.8493,-4.858,-4.8593,-4.8645,-4.866,-4.8644,-4.8649,-4.8782,-4.8784,-4.8785,-4.8765,0,0,0,0,0,0,-4.8233,-4.8252,-4.8268,-4.8331,-4.8352,-4.843,-4.8437,-4.8448,-4.8477,-4.848,-4.854,-4.855,-4.8581,-4.8637,-4.865,-4.8666,-4.8652,-4.8781,-4.8783,-4.8785,-4.8765,-4.8766,-4.8766,0,0,0,0,0,-4.8227,-4.8256,-4.8268,-4.8284,-4.8373,-4.8431,-4.8442,-4.8479,-4.8478,-4.8495,-4.8532,-4.8548,-4.8656,-4.8642,-4.8657,-4.8674,-4.8781,-4.8783,-4.8784,-4.8764,-4.8765,-4.8766,0,0,0,0,0,0,-4.8191,-4.8265,-4.8279,-4.833,-4.8374,-4.8437,-4.8459,-4.8478,-4.8522,-4.8522,-4.8564,-4.8578,-4.8627,-4.8656,-4.8639,-4.872,-4.8719,-4.8724,-4.8699,-4.8701,-4.8702,-4.8693,-4.8656,0,0,0,0,0,-4.8189,-4.8231,-4.8293,-4.8332,-4.8354,-4.8403,-4.8429,-4.8454,-4.8501,-4.8519,-4.8559,-4.8603,-4.8648,-4.8676,-4.872,-4.877,-4.8784,-4.8789,-4.879,-4.8791,-4.8794,-4.8825,-4.8829,-4.8792,-4.8792,-4.8792,0,0,-4.8186,-4.8231,-4.8254,-4.8326,-4.8363,-4.8405,-4.8418,-4.8461,-4.8493,-4.8525,-4.8577,-4.8609,-4.8661,-4.8713,-4.8738,-4.8739,-4.8808,-4.8793,-4.8793,-4.8796,-4.8828,-4.8831,-4.8834,-4.8793,-4.8793,-4.8793,0,0,-4.8201,-4.8239,-4.8277,-4.8315,-4.8372,-4.8405,-4.8414,-4.8476,-4.8499,-4.8553,-4.8579,-4.8617,-4.8692,-4.8729,-4.8758,-4.8792,-4.8809,-4.8805,-4.8809,-4.8839,-4.8842,-4.8845,-4.8858,-4.8863,-4.8809,-4.8809,-4.8809,0,-4.8188,-4.8254,-4.8294,-4.8337,-4.8369,-4.8403,-4.8442,-4.8477,-4.8544,-4.8565,-4.8566,-4.8664,-4.8701,-4.8764,-4.8773,-4.8794,-4.8807,-4.8798,-4.8839,-4.8842,-4.8845,-4.8858,-4.8863,-4.8808,-4.8808,-4.8808,-4.8808,0,-4.8237,-4.8282,-4.8306,-4.8373,-4.8408,-4.8448,-4.8496,-4.8526,-4.8549,-4.8582,-4.8638,-4.8685,-4.874,-4.8757,-4.8778,-4.8824,-4.8823,-4.883,-4.883,-4.8847,-4.8861,-4.8866,-4.8807,-4.8807,-4.8807,-4.8808,0,0,-4.8229,-4.8322,-4.833,-4.8362,-4.8429,-4.8465,-4.8509,-4.8565,-4.8591,-4.8637,-4.8676,-4.8741,-4.875,-4.8782,-4.8809,-4.8835,-4.8862,-4.884,-4.8842,-4.8843,-4.8917,-4.891,-4.8916,-4.8874,-4.8875,-4.8876,-4.8913,0,-4.8254,-4.8334,-4.8374,-4.8437,-4.848,-4.8515,-4.8554,-4.8599,-4.8633,-4.8675,-4.8711,-4.8757,-4.8765,-4.8785,-4.8813,-4.8852,-4.8877,-4.885,-4.891,-4.8911,-4.8896,-4.8922,-4.8915,-4.8947,-4.8918,-4.8919,-4.892,0,-4.8292,-4.8341,-4.8409,-4.8475,-4.8495,-4.8528,-4.8585,-4.8624,-4.8678,-4.8701,-4.874,-4.8766,-4.8815,-4.8812,-4.888,-4.8861,-4.8888,-4.8912,-4.8914,-4.892,-4.8916,-4.893,-4.8958,-4.8963,-4.8928,-4.8927,-4.8927,0,-4.8281,-4.8364,-4.8417,-4.8443,-4.852,-4.8544,-4.8577,-4.8631,-4.8663,-4.8713,-4.8734,-4.8788,-4.8817,-4.8859,-4.89,-4.8894,-4.8964,-4.8965,-4.8985,-4.8984,-4.8997,-4.8995,-4.903,-4.9014,-4.9014,-4.9014,-4.9014,0,-4.8304,-4.8344,-4.8413,-4.8445,-4.8493,-4.8539,-4.8584,-4.862,-4.8668,-4.8708,-4.8742,-4.8779,-4.8831,-4.8874,-4.8907,-4.8959,-4.8972,-4.8992,-4.9,-4.8989,-4.8986,-4.9006,-4.9005,-4.9015,-4.9015,-4.9015,-4.9015,0,-4.8298,-4.8346,-4.8406,-4.8476,-4.8495,-4.8527,-4.8587,-4.862,-4.8657,-4.8708,-4.8722,-4.878,-4.8833,-4.8879,-4.8949,-4.8971,-4.9025,-4.9035,-4.9008,-4.9012,-4.903,-4.9028,-4.9079,-4.9088,-4.9065,-4.9066,-4.9066,0,-4.831,-4.8342,-4.8417,-4.8448,-4.8481,-4.8529,-4.8563,-4.8611,-4.8646,-4.8712,-4.8737,-4.8794,-4.8842,-4.8926,-4.8974,-4.9028,-4.9039,-4.9054,-4.9047,-4.9037,-4.9041,-4.9038,-4.9042,-4.9054,-4.9054,-4.9054,-4.9054,0,-4.8325,-4.8348,-4.8397,-4.8455,-4.8496,-4.8544,-4.8592,-4.8615,-4.8672,-4.8709,-4.8766,-4.8803,-4.8877,-4.8933,-4.8994,-4.9028,-4.9051,-4.9056,-4.9064,-4.9052,-4.9036,-4.9046,-4.9009,-4.9054,-4.9054,-4.9054,-4.9054,-4.9054,-4.8329,-4.8361,-4.842,-4.8474,-4.8516,-4.8562,-4.8597,-4.8641,-4.8689,-4.8754,-4.8779,-4.8838,-4.8894,-4.8978,-4.9013,-4.9059,-4.9062,-4.9073,-4.9076,-4.9078,-4.9077,-4.9029,-4.907,-4.907,-4.907,-4.9071,-4.9071,0,-4.8347,-4.8387,-4.8437,-4.8506,-4.8549,-4.8569,-4.8625,-4.866,-4.8711,-4.8762,-4.881,-4.8877,-4.8933,-4.8986,-4.9045,-4.9072,-4.9084,-4.9086,-4.9084,-4.9092,-4.907,-4.9058,-4.9076,-4.9076,-4.9075,-4.9075,-4.9075,-4.9075,-4.8361,-4.8417,-4.8447,-4.8525,-4.8566,-4.8625,-4.8655,-4.8698,-4.874,-4.8813,-4.8861,-4.8896,-4.8949,-4.9013,-4.9066,-4.908,-4.91,-4.9099,-4.9117,-4.9094,-4.9093,-4.9092,-4.9081,-4.9103,-4.9103,-4.9135,-4.9135,-4.9136]}]]